Location: Del Amo
(33.8464°N, 118.2104°W)
Time: 08:51:26
(UTC+00:00)

Tiros 1 despin weight - All Passes

Search period start: 19 September 2024 00:00
Search period end: 29 September 2024 00:00
Orbit: 573 x 617 km, 48.2° (Epoch: 17 September)

Date Brightness Start Highest point End Pass type
(mag) Time Alt. Az. Time Alt. Az. Time Alt. Az.
19 Sep - 07:23:15 10° S 07:26:28 20° SE 07:29:43 10° E night (unlit)
19 Sep - 09:02:45 10° WSW 09:07:10 61° NW 09:11:39 10° NE night (unlit)
19 Sep - 10:45:48 10° WNW 10:48:55 18° NNW 10:52:03 10° NNE visible
19 Sep - 12:29:15 10° NNW 12:31:25 13° N 12:33:35 10° NNE visible
19 Sep - 14:10:00 10° NNW 14:13:44 24° NNE 14:17:28 10° E daylight
19 Sep - 15:50:36 10° NW 15:55:08 74° SW 15:59:38 10° SE daylight
20 Sep - 07:31:04 10° SSW 07:35:08 37° SE 07:39:16 10° ENE night (unlit)
20 Sep - 09:12:01 10° W 09:16:09 37° NNW 09:20:22 10° NE night (unlit)
20 Sep - 10:55:39 10° NW 10:58:12 15° N 11:00:47 10° NNE visible
20 Sep - 12:38:13 10° NNW 12:40:45 15° N 12:43:18 10° NE visible
20 Sep - 14:18:38 10° NW 14:22:50 36° NNE 14:27:00 10° E daylight
20 Sep - 15:59:39 10° WNW 16:03:53 39° SW 16:08:05 10° SSE daylight
21 Sep - 07:39:28 10° SW 07:43:52 70° SE 07:48:20 10° ENE night (unlit)
21 Sep - 09:21:30 10° W 09:25:13 25° NNW 09:28:58 10° NNE visible
21 Sep - 11:05:21 10° NNW 11:07:30 13° N 11:09:40 10° NNE visible
21 Sep - 12:46:55 10° NNW 12:50:00 18° NNE 12:53:06 10° ENE visible
21 Sep - 14:27:17 10° NW 14:31:47 58° NE 14:36:14 10° ESE daylight
21 Sep - 16:09:04 10° W 16:12:31 21° SW 16:15:56 10° S daylight
22 Sep - 06:09:04 10° S 06:12:00 18° SE 06:14:59 10° E night (unlit)
22 Sep - 07:48:14 10° WSW 07:52:38 66° NW 07:57:07 10° NE night (unlit)
22 Sep - 09:31:09 10° WNW 09:34:19 19° NNW 09:37:31 10° NNE visible
22 Sep - 11:14:41 10° NNW 11:16:47 13° N 11:18:53 10° NNE visible
22 Sep - 12:55:29 10° NNW 12:59:07 23° NNE 13:02:46 10° ENE visible
22 Sep - 14:36:01 10° NW 14:40:34 82° SW 14:45:05 10° SE daylight
22 Sep - 16:19:44 10° WSW 16:21:01 11° SW 16:22:17 10° SW daylight
23 Sep - 06:16:36 10° SSW 06:20:32 33° SE 06:24:32 10° ENE night (unlit)
23 Sep - 07:57:18 10° W 08:01:29 39° NNW 08:05:43 10° NE night (unlit)
23 Sep - 09:40:51 10° NW 09:43:28 15° NNW 09:46:06 10° NNE visible
23 Sep - 11:23:34 10° NNW 11:26:00 14° N 11:28:26 10° NE visible
23 Sep - 13:03:59 10° NW 13:08:07 33° NNE 13:12:13 10° E visible
23 Sep - 14:44:54 10° WNW 14:49:14 44° SW 14:53:31 10° SSE daylight
24 Sep - 06:24:46 10° SW 06:29:06 62° SE 06:33:31 10° ENE night (unlit)
24 Sep - 08:06:37 10° W 08:10:23 26° NNW 08:14:12 10° NNE night (unlit)
24 Sep - 09:50:28 10° NW 09:52:38 13° N 09:54:48 10° NNE visible
24 Sep - 11:32:10 10° NNW 11:35:08 17° NNE 11:38:06 10° ENE visible
24 Sep - 13:12:30 10° NW 13:16:57 52° NE 13:21:22 10° ESE visible
24 Sep - 14:54:05 10° WNW 14:57:44 24° SW 15:01:21 10° S daylight
25 Sep - 04:54:36 10° SSE 04:57:10 15° SE 04:59:48 10° E night (unlit)
25 Sep - 06:33:21 10° WSW 06:37:44 73° NW 06:42:12 10° NE night (unlit)
25 Sep - 08:16:06 10° WNW 08:19:21 19° NNW 08:22:38 10° NNE night (unlit)
25 Sep - 09:59:44 10° NNW 10:01:47 13° N 10:03:49 10° NNE visible
25 Sep - 11:40:36 10° NNW 11:44:08 22° NNE 11:47:41 10° ENE visible
25 Sep - 13:21:05 10° NW 13:25:38 90° N 13:30:09 10° SE daylight
25 Sep - 15:04:09 10° WSW 15:06:07 13° SW 15:08:05 10° SSW daylight
26 Sep - 05:01:47 10° SSW 05:05:34 29° SE 05:09:24 10° ENE night (unlit)
26 Sep - 06:42:14 10° WSW 06:46:26 43° NNW 06:50:42 10° NE night (unlit)
26 Sep - 08:25:42 10° NW 08:28:21 15° NNW 08:31:03 10° NNE night (unlit)
26 Sep - 10:08:34 10° NNW 10:10:52 14° N 10:13:11 10° NE visible
26 Sep - 11:48:59 10° NW 11:53:01 31° NNE 11:57:02 10° E visible
26 Sep - 13:29:47 10° WNW 13:34:10 50° SW 13:38:32 10° SSE daylight
27 Sep - 05:09:44 10° SW 05:13:59 55° SE 05:18:19 10° ENE night (unlit)
27 Sep - 06:51:23 10° W 06:55:12 28° NNW 06:59:04 10° NE night (unlit)
27 Sep - 08:35:12 10° NW 08:37:23 13° N 08:39:34 10° NNE night (unlit)
27 Sep - 10:17:03 10° NNW 10:19:52 16° NNE 10:22:42 10° NE visible
27 Sep - 11:57:21 10° NW 12:01:44 47° NNE 12:06:07 10° ESE visible
27 Sep - 13:38:46 10° WNW 13:42:34 27° SW 13:46:22 10° S daylight
28 Sep - 03:39:51 10° SSE 03:41:59 13° SE 03:44:08 10° E night (unlit)
28 Sep - 05:18:07 10° SW 05:22:29 82° NW 05:26:55 10° NE night (unlit)
28 Sep - 07:00:42 10° WNW 07:04:00 20° NNW 07:07:22 10° NNE night (unlit)
28 Sep - 08:44:25 10° NNW 08:46:24 13° N 08:48:22 10° NNE night (unlit)
28 Sep - 10:25:22 10° NNW 10:28:46 21° NNE 10:32:11 10° ENE visible
28 Sep - 12:05:47 10° NW 12:10:19 81° NE 12:14:51 10° SE visible
28 Sep - 13:48:24 10° W 13:50:52 14° SW 13:53:19 10° SSW daylight
